Overview Statistics Trail Chart Weather Telemetry Raw packets
 

This is the latest recevied weather packets stored in our database for station/object Seibranz. If no packets are shown the sender has not sent any weather packets the latest 10 day(s).

<< 14 15 16 17 18 19 >>
Time Temp. Humidity Pressure Rain* Wind** Luminosity Snow
1787851930 24.44° C 72% 1009.8 hPa 0 mm - - -
1787850130 25.56° C 68% 1010 hPa 0 mm - - -
1787848331 26.67° C 61% 1009.9 hPa 0 mm - - -
1787846530 26.67° C 62% 1009.9 hPa 0 mm - - -
1787844731 27.22° C 61% 1009.8 hPa 0 mm - - -
1787842931 27.78° C 61% 1010 hPa 0 mm - - -
1787841132 28.33° C 54% 1010.2 hPa 0 mm - - -
1787839332 28.33° C 54% 1010.2 hPa 0 mm - - -
1787837531 27.22° C 61% 1010.5 hPa 0 mm - - -
1787835730 27.78° C 54% 1010.6 hPa 0 mm - - -
1787833930 28.33° C 53% 1011 hPa 0 mm - - -
1787832131 28.33° C 50% 1011.2 hPa 0 mm - - -
1787830330 28.33° C 57% 1011.4 hPa 0 mm - - -
1787828530 27.78° C 47% 1011.5 hPa 0 mm - - -
1787826730 27.78° C 55% 1011.9 hPa 0 mm - - -
1787824931 26.67° C 54% 1012.2 hPa 0 mm - - -
1787823130 26.11° C 64% 1012.5 hPa 0 mm - - -
1787821330 25° C 67% 1012.4 hPa 0 mm - - -
1787819530 23.33° C 76% 1012.2 hPa 0 mm - - -
1787817730 22.22° C 77% 1012.6 hPa 0 mm - - -
1787815930 20.56° C 84% 1012.4 hPa 0 mm - - -
1787814130 20.56° C 83% 1012.2 hPa 0 mm - - -
1787812330 18.33° C 89% 1012 hPa 0 mm - - -
1787810530 16.67° C 91% 1012.1 hPa 0 mm - - -
1787808730 15.56° C 92% 1012 hPa 0 mm - - -

* Rain since midnight (hover to see other rain measurements)
** Current wind speed in m/s (hover to see current wind gust speed)